| time (UTC) | temp F | wind direction | speed MPH | gust MPH | rain 1hr in | rain 24hr in | rain mn in | humidity % | barometer mb |
| 20260505052922 | 59 | 10 | 0.0 | 0.0 | 0.00 | 0.00 | 0.00 | 78 | 1033.6 |
| 20260505052418 | 59 | 8 | 0.0 | 0.0 | 0.00 | 0.00 | 0.00 | 77 | 1033.4 |
| 20260505051916 | 59 | 8 | 0.0 | 0.0 | 0.00 | 0.00 | 0.00 | 78 | 1033.6 |
| 20260505051413 | 60 | 8 | 0.0 | 0.0 | 0.00 | 0.00 | 0.00 | 77 | 1033.6 |
| 20260505050911 | 60 | 7 | 0.0 | 0.0 | 0.00 | 0.00 | 0.00 | 75 | 1033.6 |
| 20260505050409 | 60 | 22 | 0.0 | 0.0 | 0.00 | 0.00 | 0.00 | 75 | 1033.6 |
| 20260505041336 | 63 | 118 | 0.0 | 0.0 | 0.00 | 0.00 | 0.00 | 67 | 1033.2 |
| 20260505040833 | 63 | 186 | 0.0 | 1.0 | 0.00 | 0.00 | 0.00 | 67 | 1033.4 |
| 20260505040331 | 63 | 183 | 0.0 | 0.0 | 0.00 | 0.00 | 0.00 | 66 | 1033.4 |
| 20260505035828 | 62 | 45 | 0.0 | 0.0 | 0.00 | 0.00 | 0.00 | 65 | 1033.4 |
| 20260505035323 | 63 | 209 | 1.0 | 2.0 | 0.00 | 0.00 | 0.00 | 66 | 1033.2 |
| 20260505034821 | 63 | 344 | 0.0 | 0.0 | 0.00 | 0.00 | 0.00 | 64 | 1033.4 |
| 20260505034317 | 63 | 294 | 0.0 | 0.0 | 0.00 | 0.00 | 0.00 | 66 | 1033.3 |
| 20260505033815 | 63 | 348 | 0.0 | 0.0 | 0.00 | 0.00 | 0.00 | 63 | 1033.4 |
| 20260505033311 | 64 | 345 | 0.0 | 0.0 | 0.00 | 0.00 | 0.00 | 63 | 1033.3 |
| 20260505032810 | 63 | 334 | 0.0 | 0.0 | 0.00 | 0.00 | 0.00 | 64 | 1033.4 |
| 20260505032305 | 64 | 317 | 0.0 | 0.0 | 0.00 | 0.00 | 0.00 | 64 | 1033.3 |
| 20260505031803 | 64 | 346 | 0.0 | 0.0 | 0.00 | 0.00 | 0.00 | 63 | 1033.2 |
| 20260505031259 | 64 | 330 | 0.0 | 0.0 | 0.00 | 0.00 | 0.00 | 64 | 1033.2 |
| 20260505030757 | 65 | 338 | 0.0 | 0.0 | 0.00 | 0.00 | 0.00 | 60 | 1033.2 |
| 20260505030252 | 64 | 338 | 0.0 | 0.0 | 0.00 | 0.00 | 0.00 | 62 | 1033.3 |
| 20260505025747 | 64 | 338 | 0.0 | 0.0 | 0.00 | 0.00 | 0.00 | 62 | 1033.2 |
| 20260505025246 | 65 | 337 | 0.0 | 0.0 | 0.00 | 0.00 | 0.00 | 62 | 1033.4 |
| 20260505024744 | 65 | 351 | 0.0 | 0.0 | 0.00 | 0.00 | 0.00 | 59 | 1033.4 |
| 20260505024241 | 65 | 351 | 0.0 | 0.0 | 0.00 | 0.00 | 0.00 | 62 | 1033.5 |
| 20260505023738 | 65 | 351 | 0.0 | 0.0 | 0.00 | 0.00 | 0.00 | 62 | 1033.4 |
| 20260505023235 | 65 | 351 | 0.0 | 0.0 | 0.00 | 0.00 | 0.00 | 62 | 1033.4 |
| 20260505022733 | 65 | 351 | 0.0 | 0.0 | 0.00 | 0.00 | 0.00 | 64 | 1033.1 |
| 20260505022230 | 66 | 351 | 0.0 | 0.0 | 0.00 | 0.00 | 0.00 | 63 | 1033.3 |
| 20260505021726 | 66 | 351 | 0.0 | 0.0 | 0.00 | 0.00 | 0.00 | 60 | 1033.1 |
| 20260505021223 | 66 | 351 | 0.0 | 0.0 | 0.00 | 0.00 | 0.00 | 58 | 1033.1 |
| 20260505020719 | 66 | 351 | 0.0 | 0.0 | 0.00 | 0.00 | 0.00 | 61 | 1033.4 |
| 20260505020214 | 66 | 351 | 0.0 | 0.0 | 0.00 | 0.00 | 0.00 | 58 | 1033.3 |
| 20260505015712 | 66 | 351 | 0.0 | 0.0 | 0.00 | 0.00 | 0.00 | 58 | 1033.1 |
| 20260505015209 | 67 | 351 | 0.0 | 0.0 | 0.00 | 0.00 | 0.00 | 59 | 1033.1 |
| 20260505014706 | 67 | 351 | 0.0 | 0.0 | 0.00 | 0.00 | 0.00 | 56 | 1033.0 |
| 20260505014203 | 67 | 351 | 0.0 | 0.0 | 0.00 | 0.00 | 0.00 | 58 | 1033.0 |
| 20260505013659 | 67 | 351 | 0.0 | 0.0 | 0.00 | 0.00 | 0.00 | 61 | 1032.8 |
| 20260505013151 | 67 | 351 | 0.0 | 0.0 | 0.00 | 0.00 | 0.00 | 60 | 1032.8 |
| 20260505012650 | 68 | 351 | 0.0 | 0.0 | 0.00 | 0.00 | 0.00 | 57 | 1032.9 |
| 20260505012147 | 68 | 351 | 0.0 | 0.0 | 0.00 | 0.00 | 0.00 | 55 | 1032.8 |
| 20260505011642 | 68 | 351 | 0.0 | 0.0 | 0.00 | 0.00 | 0.00 | 55 | 1032.7 |
| 20260505011140 | 68 | 351 | 0.0 | 0.0 | 0.00 | 0.00 | 0.00 | 54 | 1033.0 |
| 20260505010640 | 68 | 352 | 0.0 | 0.0 | 0.00 | 0.00 | 0.00 | 54 | 1032.7 |
| 20260505010137 | 68 | 351 | 0.0 | 0.0 | 0.00 | 0.00 | 0.00 | 54 | 1032.7 |
| 20260505005632 | 69 | 353 | 0.0 | 0.0 | 0.00 | 0.00 | 0.00 | 55 | 1032.7 |
| 20260505005130 | 69 | 353 | 0.0 | 0.0 | 0.00 | 0.00 | 0.00 | 52 | 1032.6 |
| 20260505004627 | 70 | 353 | 0.0 | 0.0 | 0.00 | 0.00 | 0.00 | 53 | 1032.6 |
| 20260505004123 | 70 | 356 | 0.0 | 0.0 | 0.00 | 0.00 | 0.00 | 50 | 1032.7 |
| 20260505003621 | 71 | 356 | 0.0 | 0.0 | 0.00 | 0.00 | 0.00 | 49 | 1032.7 |
| 20260505003118 | 71 | 355 | 0.0 | 0.0 | 0.00 | 0.00 | 0.00 | 49 | 1032.6 |
| 20260505002614 | 71 | 357 | 0.0 | 0.0 | 0.00 | 0.00 | 0.00 | 49 | 1032.6 |
| 20260505002113 | 71 | 357 | 0.0 | 0.0 | 0.00 | 0.00 | 0.00 | 50 | 1032.7 |
| 20260505001609 | 71 | 356 | 0.0 | 0.0 | 0.00 | 0.00 | 0.00 | 49 | 1032.4 |
| 20260505001107 | 72 | 356 | 0.0 | 1.0 | 0.00 | 0.00 | 0.00 | 49 | 1032.3 |
| 20260505000604 | 72 | 357 | 0.0 | 0.0 | 0.00 | 0.00 | 0.00 | 48 | 1032.5 |
| 20260504235558 | 73 | 6 | 0.0 | 0.0 | 0.00 | 0.00 | 0.00 | 48 | 1032.5 |
| 20260504235054 | 73 | 6 | 0.0 | 0.0 | 0.00 | 0.00 | 0.00 | 47 | 1032.4 |
| 20260504234551 | 73 | 7 | 0.0 | 0.0 | 0.00 | 0.00 | 0.00 | 47 | 1032.5 |
| 20260504234049 | 74 | 4 | 0.0 | 0.0 | 0.00 | 0.00 | 0.00 | 46 | 1032.5 |
| 20260504233544 | 74 | 354 | 0.0 | 0.0 | 0.00 | 0.00 | 0.00 | 46 | 1032.8 |
| 20260504233041 | 74 | 350 | 0.0 | 1.0 | 0.00 | 0.00 | 0.00 | 46 | 1032.7 |
| 20260504232538 | 74 | 350 | 0.0 | 0.0 | 0.00 | 0.00 | 0.00 | 46 | 1032.7 |
| 20260504232036 | 74 | 352 | 0.0 | 0.0 | 0.00 | 0.00 | 0.00 | 46 | 1032.8 |
| 20260504231532 | 74 | 14 | 0.0 | 0.0 | 0.00 | 0.00 | 0.00 | 46 | 1032.5 |
| 20260504231028 | 75 | 0 | 0.0 | 0.0 | 0.00 | 0.00 | 0.00 | 45 | 1032.5 |
| 20260504230524 | 75 | 356 | 1.0 | 1.0 | 0.00 | 0.00 | 0.00 | 43 | 1032.8 |
| 20260504230023 | 75 | 352 | 1.0 | 1.0 | 0.00 | 0.00 | 0.00 | 44 | 1032.8 |
| 20260504225520 | 75 | 348 | 1.0 | 2.0 | 0.00 | 0.00 | 0.00 | 44 | 1032.8 |
| 20260504225017 | 75 | 13 | 0.0 | 0.0 | 0.00 | 0.00 | 0.00 | 43 | 1032.8 |
| 20260504224514 | 75 | 13 | 0.0 | 0.0 | 0.00 | 0.00 | 0.00 | 45 | 1032.9 |
| 20260504224011 | 76 | 332 | 0.0 | 0.0 | 0.00 | 0.00 | 0.00 | 45 | 1032.9 |
| 20260504223507 | 76 | 18 | 0.0 | 0.0 | 0.00 | 0.00 | 0.00 | 43 | 1033.0 |
| 20260504223003 | 76 | 25 | 0.0 | 0.0 | 0.00 | 0.00 | 0.00 | 43 | 1032.8 |
| 20260504222500 | 76 | 0 | 0.0 | 0.0 | 0.00 | 0.00 | 0.00 | 45 | 1033.0 |
| 20260504221958 | 77 | 354 | 2.0 | 2.0 | 0.00 | 0.00 | 0.00 | 42 | 1032.9 |
| 20260504221455 | 77 | 300 | 1.0 | 2.0 | 0.00 | 0.00 | 0.00 | 39 | 1032.8 |
| 20260504220952 | 77 | 68 | 0.0 | 0.0 | 0.00 | 0.00 | 0.00 | 44 | 1033.0 |
| 20260504220448 | 78 | 21 | 0.0 | 0.0 | 0.00 | 0.00 | 0.00 | 40 | 1033.0 |
| 20260504215945 | 80 | 16 | 0.0 | 0.0 | 0.00 | 0.00 | 0.00 | 39 | 1033.1 |
| 20260504215442 | 79 | 19 | 0.0 | 0.0 | 0.00 | 0.00 | 0.00 | 38 | 1032.9 |
| 20260504214938 | 79 | 41 | 0.0 | 0.0 | 0.00 | 0.00 | 0.00 | 40 | 1033.1 |
| 20260504214435 | 78 | 233 | 0.0 | 0.0 | 0.00 | 0.00 | 0.00 | 41 | 1033.1 |
| 20260504213932 | 77 | 20 | 0.0 | 0.0 | 0.00 | 0.00 | 0.00 | 44 | 1033.0 |
| 20260504213428 | 77 | 344 | 2.0 | 2.0 | 0.00 | 0.00 | 0.00 | 46 | 1033.2 |
| 20260504212926 | 77 | 351 | 0.0 | 1.0 | 0.00 | 0.00 | 0.00 | 43 | 1033.4 |
| 20260504212421 | 78 | 25 | 0.0 | 0.0 | 0.00 | 0.00 | 0.00 | 45 | 1032.9 |
| 20260504211919 | 77 | 344 | 0.0 | 0.0 | 0.00 | 0.00 | 0.00 | 44 | 1033.2 |
| 20260504211415 | 78 | 5 | 0.0 | 0.0 | 0.00 | 0.00 | 0.00 | 43 | 1033.2 |
| 20260504210912 | 77 | 347 | 0.0 | 1.0 | 0.00 | 0.00 | 0.00 | 46 | 1033.1 |
| 20260504210409 | 77 | 348 | 0.0 | 0.0 | 0.00 | 0.00 | 0.00 | 46 | 1033.1 |
| 20260504205907 | 76 | 13 | 1.0 | 1.0 | 0.00 | 0.00 | 0.00 | 45 | 1033.3 |
| 20260504205404 | 76 | 26 | 0.0 | 0.0 | 0.00 | 0.00 | 0.00 | 47 | 1033.4 |
| 20260504204902 | 76 | 6 | 1.0 | 2.0 | 0.00 | 0.00 | 0.00 | 43 | 1033.4 |
| 20260504204400 | 77 | 343 | 3.0 | 3.0 | 0.00 | 0.00 | 0.00 | 44 | 1033.4 |
| 20260504203900 | 77 | 9 | 0.0 | 0.0 | 0.00 | 0.00 | 0.00 | 45 | 1033.3 |
| 20260504203356 | 77 | 7 | 0.0 | 0.0 | 0.00 | 0.00 | 0.00 | 42 | 1033.4 |
| 20260504202852 | 77 | 19 | 0.0 | 0.0 | 0.00 | 0.00 | 0.00 | 44 | 1033.5 |
| 20260504202349 | 78 | 35 | 0.0 | 0.0 | 0.00 | 0.00 | 0.00 | 47 | 1033.2 |
| 20260504201845 | 78 | 339 | 1.0 | 1.0 | 0.00 | 0.00 | 0.00 | 46 | 1033.6 |
| 20260504201343 | 77 | 29 | 0.0 | 0.0 | 0.00 | 0.00 | 0.00 | 45 | 1033.6 |
| 20260504200840 | 76 | 2 | 0.0 | 0.0 | 0.00 | 0.00 | 0.00 | 45 | 1033.5 |
| 20260504200337 | 76 | 21 | 0.0 | 0.0 | 0.00 | 0.00 | 0.00 | 45 | 1033.8 |
| 20260504195833 | 76 | 6 | 0.0 | 0.0 | 0.00 | 0.00 | 0.00 | 46 | 1033.7 |
| 20260504195329 | 77 | 334 | 1.0 | 2.0 | 0.00 | 0.00 | 0.00 | 43 | 1033.9 |
| 20260504194826 | 77 | 18 | 1.0 | 1.0 | 0.00 | 0.00 | 0.00 | 44 | 1034.2 |
| 20260504194322 | 77 | 356 | 0.0 | 1.0 | 0.00 | 0.00 | 0.00 | 39 | 1034.0 |
| 20260504193818 | 77 | 21 | 0.0 | 0.0 | 0.00 | 0.00 | 0.00 | 41 | 1034.1 |
| 20260504193316 | 76 | 10 | 2.0 | 2.0 | 0.00 | 0.00 | 0.00 | 45 | 1034.3 |
| 20260504192814 | 77 | 328 | 2.0 | 3.0 | 0.00 | 0.00 | 0.00 | 43 | 1034.1 |
| 20260504192312 | 80 | 342 | 1.0 | 1.0 | 0.00 | 0.00 | 0.00 | 41 | 1034.0 |
| 20260504191810 | 79 | 345 | 1.0 | 1.0 | 0.00 | 0.00 | 0.00 | 43 | 1034.2 |
| 20260504191307 | 79 | 11 | 0.0 | 0.0 | 0.00 | 0.00 | 0.00 | 44 | 1034.4 |
| 20260504190802 | 79 | 16 | 0.0 | 0.0 | 0.00 | 0.00 | 0.00 | 44 | 1034.5 |
| 20260504190259 | 80 | 17 | 0.0 | 0.0 | 0.00 | 0.00 | 0.00 | 43 | 1034.4 |
| 20260504185755 | 79 | 119 | 1.0 | 1.0 | 0.00 | 0.00 | 0.00 | 41 | 1034.5 |
| 20260504185253 | 78 | 10 | 1.0 | 2.0 | 0.00 | 0.00 | 0.00 | 46 | 1034.5 |
| 20260504184749 | 79 | 20 | 0.0 | 0.0 | 0.00 | 0.00 | 0.00 | 46 | 1034.8 |
| 20260504184244 | 77 | 10 | 1.0 | 1.0 | 0.00 | 0.00 | 0.00 | 46 | 1034.6 |
| 20260504183740 | 77 | 10 | 0.0 | 1.0 | 0.00 | 0.00 | 0.00 | 45 | 1035.0 |
| 20260504183237 | 78 | 356 | 0.0 | 0.0 | 0.00 | 0.00 | 0.00 | 42 | 1034.8 |
| 20260504182736 | 78 | 337 | 2.0 | 3.0 | 0.00 | 0.00 | 0.00 | 44 | 1035.1 |
| 20260504182233 | 77 | 26 | 0.0 | 0.0 | 0.00 | 0.00 | 0.00 | 46 | 1035.1 |
| 20260504181730 | 78 | 19 | 0.0 | 0.0 | 0.00 | 0.00 | 0.00 | 46 | 1035.2 |
| 20260504181227 | 78 | 188 | 1.0 | 1.0 | 0.00 | 0.00 | 0.00 | 41 | 1035.2 |
| 20260504180726 | 78 | 338 | 2.0 | 2.0 | 0.00 | 0.00 | 0.00 | 43 | 1035.4 |
| 20260504180225 | 77 | 175 | 2.0 | 2.0 | 0.00 | 0.00 | 0.00 | 45 | 1035.1 |
| 20260504175722 | 77 | 20 | 0.0 | 0.0 | 0.00 | 0.00 | 0.00 | 47 | 1035.7 |
| 20260504175218 | 77 | 349 | 0.0 | 0.0 | 0.00 | 0.00 | 0.00 | 46 | 1035.6 |
| 20260504174716 | 78 | 214 | 1.0 | 3.0 | 0.00 | 0.00 | 0.00 | 45 | 1035.6 |
| 20260504174214 | 77 | 7 | 0.0 | 0.0 | 0.00 | 0.00 | 0.00 | 44 | 1035.3 |
| 20260504173710 | 79 | 12 | 0.0 | 1.0 | 0.00 | 0.00 | 0.00 | 43 | 1035.7 |
| 20260504173208 | 77 | 351 | 0.0 | 0.0 | 0.00 | 0.00 | 0.00 | 47 | 1035.7 |
| 20260504172704 | 75 | 14 | 0.0 | 0.0 | 0.00 | 0.00 | 0.00 | 43 | 1035.6 |
| 20260504172200 | 75 | 342 | 0.0 | 0.0 | 0.00 | 0.00 | 0.00 | 47 | 1035.8 |
| 20260504171657 | 75 | 334 | 3.0 | 3.0 | 0.00 | 0.00 | 0.00 | 46 | 1035.9 |
| 20260504171154 | 76 | 20 | 0.0 | 0.0 | 0.00 | 0.00 | 0.00 | 45 | 1036.0 |
| 20260504170650 | 75 | 353 | 0.0 | 0.0 | 0.00 | 0.00 | 0.00 | 48 | 1036.1 |
| 20260504170148 | 76 | 31 | 0.0 | 0.0 | 0.00 | 0.00 | 0.00 | 49 | 1036.3 |
| 20260504151033 | 70 | 342 | 0.0 | 1.0 | 0.00 | 0.00 | 0.00 | 58 | 1036.9 |
| 20260504150531 | 69 | 352 | 0.0 | 0.0 | 0.00 | 0.00 | 0.00 | 59 | 1037.0 |
| 20260504140957 | 62 | 343 | 0.0 | 0.0 | 0.00 | 0.00 | 0.00 | 70 | 1037.2 |
| 20260504140453 | 61 | 12 | 0.0 | 0.0 | 0.00 | 0.00 | 0.00 | 70 | 1037.4 |
| 20260504130418 | 52 | 179 | 0.0 | 0.0 | 0.00 | 0.00 | 0.00 | 92 | 1037.3 |
| 20260504110305 | 47 | 54 | 0.0 | 0.0 | 0.00 | 0.00 | 0.00 | 98 | 1036.7 |
| 20260504100223 | 47 | 46 | 0.0 | 0.0 | 0.00 | 0.00 | 0.00 | 97 | 1036.7 |
| 20260504081616 | 49 | 344 | 0.0 | 0.0 | 0.00 | 0.00 | 0.00 | 96 | 1036.6 |
| 20260504081112 | 49 | 344 | 0.0 | 0.0 | 0.00 | 0.00 | 0.00 | 96 | 1036.5 |
| 20260504080609 | 48 | 344 | 0.0 | 0.0 | 0.00 | 0.00 | 0.00 | 96 | 1036.7 |
| 20260504080105 | 48 | 344 | 0.0 | 0.0 | 0.00 | 0.00 | 0.00 | 96 | 1036.8 |